DUBAISAT-2

Last updated on Fri Jul 10 2026 00:02:49 GMT+0000 (Coordinated Universal Time)

1 39419U 13066D 26190.26637961 .00004094 00000+0 25314-3 0 9994 2 39419 97.4573 179.8355 0009900 325.7476 34.3114 15.10347493689728
UTC large
Height (km)
Speed (km/s)
/
Latitude / Longitude
Inclination (degrees)
Orbital Period (minutes)
Azimuth
Elevation
Range (km)
Doppler Factor

Next 0 passes for location: London (51.5072 / 0.1276)

No passes found over London.
DUBAISAT-2